Terug naar catalogus

YAOGAN-34

ActiefMilitairLEO
NORAD 48340·PAYLOAD·🇨🇳 China

Gelanceerd Apr 30, 2021 vanaf Jiuquan Satellite Launch Center

Loading…

Volgende Passages (komende 24 uur)

TLE

VersSource: Space-Track

Epoch: Sep 14, 2026, 14:42 UTC

1 48340U 21037A   26257.61255282  .00000036  00000-0  21052-3 0  9997
2 48340  63.4018 276.6954 0048349 353.2134   6.8232 13.45437744264039

Volg YAOGAN-34 in realtime met AllMySat

Download on the App Store